Location: Bonac
(42.8765°N, 0.9753°E)
Time: 15:23:33
(UTC+00:00)

Meteor 2-13 Rocket - Pass Details

Date: 12 January 2026
Orbit: 935 x 958 km, 82.5° (Epoch: 18 February)

Event Time Altitude Azimuth Distance (km) Brightness Sun altitude
Rises 18:18:54 0° 180° (S) 3,619 7.7 -17.0°
Reaches altitude 10° 18:21:23 10° 179° (S) 2,679 6.9 -17.5°
Maximum altitude 18:27:30 74° 95° (E) 997 4.4 -18.5°
Drops below altitude 10° 18:33:39 10° 12° (NNE) 2,698 6.6 -19.7°
Sets 18:36:10 0° 11° (N) 3,647 7.3 -20.1°
